Michalis Makris

Jefe de ojeadores - Agia Napa
13 Feb 2028
Domingo
Continuar

Personalidad

Adaptabilidad (17) Ambición (8) Controversia (18) Lealtad (11) Presión (1) Profesionalismo (13) Deportividad (1) Temperamento (19)

Perfil

Estilo de dirección Democrático
Licencia Continental A
Determinación 9
Gestión de personas 4
Motivación 9
Disciplina 4
Satisfacción laboral
84%
Fatiga
0%
Cargo Jefe de ojeadores
Salario 15.5K p/s
Contrato 14.03.2030

Rendimiento

Comportamiento Bueno
Efectividad del entrenamiento
25%
Desarrollo de jugadores
40%
Prevención de lesiones
10%
Implementación táctica
20%

Eventos recientes

Asistió a una reunión de captación 7d atrás
Recomendó un objetivo de fichaje 7d atrás
Presentó un informe a la directiva 7d atrás
Asistió a una reunión de captación 14d atrás
Recomendó un objetivo de fichaje 14d atrás
Cursando desarrollo profesional 21d atrás
Cursando desarrollo profesional 21d atrás
Cursando desarrollo profesional 21d atrás

Actualmente siguiendo

104
Jugador Club Estado Habilidad Confianza Observado Última observación Último voto
Nikolas Perdios Ethnikos Achnas Activo 90 / 83 58% 1 19.07.2027 Aprobar
Banou Cissé Real Bamako Activo 94 / 116 40% 4 05.07.2027 -
Francesco Petito Dolomiti Bellunesi Activo 102 / 89 40% 1 05.07.2027 -
Stanislav Biblyk Chaika Activo 98 / 111 40% 6 14.06.2027 -
Mattia Iori Lumezzane Activo 99 / 92 40% 1 14.06.2027 -
Jimmy Kazan Paralimni Activo 79 / 71 58% 1 01.06.2027 Aprobar
Enzo Cabrera AE Kition Activo 120 / 101 40% 4 30.05.2027 -
Youssef Dalouzi Renaissance Activo 102 / 102 40% 2 29.05.2027 -
Vladimir Khubulov Dinamo Makhachkala Activo 105 / 111 40% 4 28.05.2027 -
Lamine Diakité Djoliba Activo 100 / 94 40% 2 28.05.2027 -
César Magallan Estudiantes de Merida Activo 108 / 123 40% 1 26.05.2027 -
Ekain Orobengoa Real Sociedad Activo 116 / 119 40% 2 25.05.2027 -
Christos Giousis Nea Salamis Activo 111 / 113 40% 4 23.05.2027 -
Nicolás Andereggen Ethnikos Achnas Activo 113 / 125 40% 3 22.05.2027 -
Panagiotis Tzimas Nea Salamis Activo 103 / 104 40% 2 20.05.2027 -
Moussakoye Diallo Stade Malien Activo 96 / 88 40% 3 16.05.2027 -
Alejandro Rincon Llaneros Activo 88 / 119 40% 1 16.05.2027 -
Martin Sekulić Ural Activo 126 / 114 40% 6 15.05.2027 -
Job Ochieng Real Sociedad Activo 106 / 89 40% 2 12.05.2027 -
Ruslan Apekov Torpedo Moscow Activo 106 / 107 40% 1 11.05.2027 -
Jonathan Okoronkwo Torpedo Moscow Activo 103 / 112 40% 5 05.05.2027 -
Anton Betyuzhnov Dinamo Vologda Activo 67 / 83 40% 1 03.05.2027 -
Bashar Musa US Forces Armees Activo 84 / 83 40% 5 02.05.2027 -
Darío Poveda Nea Salamis Activo 99 / 100 40% 3 01.05.2027 -
Alexandr Saplinov Volga Activo 90 / 86 40% 2 01.05.2027 -
Dramane Traoré AS Korofina Activo 108 / 113 40% 2 30.04.2027 -
Shawn McCoulsky Harrogate Town Activo 74 / 74 40% 1 30.04.2027 -
Carlos Zepeda Zvezda Activo 68 / 80 40% 1 28.04.2027 -
Kamran Aliev SKA Khabarovsk Activo 103 / 98 40% 1 27.04.2027 -
Timur Melekestsev Arsenal Tula Activo 90 / 80 40% 2 25.04.2027 -
Kane Drummond Oldham Athletic Activo 102 / 114 40% 2 24.04.2027 -
Juan Cejas Ethnikos Achnas Activo 104 / 123 40% 4 22.04.2027 -
Giuseppe D'Agostino Giugliano Activo 88 / 94 40% 1 22.04.2027 -
Damir Céter Hamrun Spartans Activo 99 / 104 40% 1 15.04.2027 -
Ilja Safronov Rotor Activo 112 / 121 40% 4 14.04.2027 -
Slobodan Tedić Akron Activo 102 / 87 40% 4 11.04.2027 -
Zoumana Simpara Djoliba Activo 104 / 111 40% 2 11.04.2027 -
Migran Ageyan Ufa Activo 93 / 115 40% 2 09.04.2027 -
Jakub Bednarczyk Gornik Leczna Activo 113 / 107 40% 1 05.04.2027 -
Maxim Kutovoy Salyut Activo 84 / 98 40% 2 04.04.2027 -
Tobías Dieni Ryazan Activo 65 / 62 40% 1 04.04.2027 -
Jacobo Alcalde SKA Khabarovsk Activo 86 / 106 40% 1 26.03.2027 -
Denis Rubanov Dinamo Stavropol Activo 74 / 70 40% 3 25.03.2027 -
Vladislav Yakovlev Volga Activo 98 / 89 40% 1 25.03.2027 -
Rashid Magomedov Neftekhimik Activo 93 / 101 40% 1 24.03.2027 -
Paolo Yrizar Chernomorets Activo 106 / 87 40% 3 22.03.2027 -
Akintunde Azeez US Bougouni Activo 79 / 83 40% 1 20.03.2027 -
Jere Vrcić Birkirkara Activo 92 / 92 40% 2 19.03.2027 -
Surkhaikhan Abdullaev KAMAZ Activo 93 / 111 40% 1 18.03.2027 -
Evgeny Voronin Volga Activo 91 / 97 40% 1 16.03.2027 -
Denis Mironov Shinnik Activo 91 / 82 40% 1 12.03.2027 -
Labros Ioannou Ermis Activo 89 / 86 40% 2 09.03.2027 -
Patrick Schmidt Tarxien Rainbows Activo 112 / 96 40% 3 07.03.2027 -
Yegor Ponomarev Tver Activo 75 / 85 40% 1 05.03.2027 -
Miloš Jovičić Zabbar St. Patrick Activo 79 / 94 40% 2 03.03.2027 -
Peter Dakka AS Bakaridjan Activo 84 / 98 40% 2 03.03.2027 -
Aleksej Golijanin Sokol Activo 92 / 88 40% 1 01.03.2027 -
Bruno Gomes Valletta Activo 89 / 106 40% 1 01.02.2027 -
Jajá Pafos Activo 103 / 97 40% 2 18.01.2027 -
Alexandr Olenev Nart Activo 89 / 106 40% 3 24.12.2026 -
Yusuff Adewale US Bougouba Activo 75 / 92 40% 1 22.12.2026 -
Rody Junior Effaghe Aris Activo 109 / 110 40% 4 20.12.2026 -
Davit Volkovi Zira Activo 123 / 129 40% 2 19.12.2026 -
Javier Siverio Ethnikos Achnas Activo 86 / 101 40% 1 18.12.2026 -
Daniil Kondrakov KDV Tomsk Activo 102 / 94 40% 1 18.12.2026 -
Ildi Gruda Egnatia Rrogozhinë Activo 114 / 125 40% 2 16.12.2026 -
Dmitry Kuptsov Spartak Tambov Activo 76 / 95 40% 1 15.12.2026 -
Franklin Sasere Birkirkara Activo 82 / 75 40% 1 05.12.2026 -
Hakeeb Adelakun Doncaster Rovers Activo 117 / 95 40% 2 30.11.2026 -
Will Swan Bradford City Activo 86 / 98 40% 3 29.11.2026 -
Víctor Guzmán Sporting CP Activo 100 / 90 40% 1 27.11.2026 -
Brandon Hanlan Doncaster Rovers Activo 101 / 88 40% 1 26.11.2026 -
Tenton Yenne Baltika Activo 100 / 106 40% 1 22.11.2026 -
Daniil Agureev Amkar Activo 99 / 65 40% 1 18.11.2026 -
Renat Garayev AZAL Activo 106 / 94 40% 1 17.11.2026 -
Sergio Riffo Kolkheti Activo 87 / 100 40% 1 17.11.2026 -
Daniel Udoh Salford City Activo 104 / 114 40% 1 09.11.2026 -
Isaac Matondo Koper Activo 110 / 96 40% 2 08.11.2026 -
Nikita Simdyankin KDV Tomsk Activo 89 / 77 40% 1 08.11.2026 -
David Karaev KAMAZ Activo 96 / 118 40% 1 07.11.2026 -
Robert Murić Floriana Activo 99 / 86 40% 2 06.11.2026 -
Shota Shekiladze Dila Activo 101 / 126 40% 1 04.11.2026 -
Mateusz Musiałowski Anorthosis Activo 89 / 92 40% 1 03.11.2026 -
Paul Glatzel Swindon Town Activo 110 / 99 40% 1 31.10.2026 -
Elías Peralta Lokomotivi Activo 102 / 87 40% 1 31.10.2026 -
Jaze Kabia Grimsby Town Activo 91 / 106 40% 1 25.10.2026 -
Magomed Nasibov Pobeda Activo 96 / 100 40% 1 25.10.2026 -
Denzel Jubitana Neftchi Activo 109 / 122 40% 1 23.10.2026 -
Sam Nombe Milton Keynes Dons Activo 98 / 93 40% 1 21.10.2026 -
Andronikos Kakoullis Aris Activo 102 / 104 40% 1 21.10.2026 -
Pedro Martelo Teuta Durrës Activo 98 / 84 40% 1 20.10.2026 -
Alexandr Yushin Torpedo Moscow Activo 97 / 121 40% 1 20.10.2026 -
Marcus Browne AFC Wimbledon Activo 94 / 99 40% 1 18.10.2026 -
Manprit Sarkaria Austria Wien Activo 113 / 92 40% 1 18.10.2026 -
Kekuta Manneh Samtredia Activo 97 / 88 40% 1 15.10.2026 -
Ousmane Diawara Altach Activo 106 / 88 40% 1 09.10.2026 -
Rafael Santos Borré River Plate Activo 135 / 116 40% 1 05.10.2026 -
Macaulay Langstaff Millwall Activo 123 / 130 40% 1 07.09.2026 -
Gonzalo Errecalde Gimnasia La Plata Activo 118 / 138 40% 1 24.08.2026 -
Alberto Benítez Villalba Torpedo Kutaisi Activo 91 / 98 40% 1 11.08.2026 -
Felipe Tempone Independiente Activo 66 / 97 40% 1 11.08.2026 -
Mihail Angelos Marinescu Ethnikos Achnas Activo 68 / 63 58% 1 10.08.2026 Aprobar
Rodrigo Bogarín Barracas Central Activo 122 / 108 40% 1 01.08.2026 -
Gustavo Del Prete San Lorenzo Activo 122 / 132 40% 1 01.08.2026 -